Flag for Austria Weather past 2 weeks in Leonding, Upper Austria, Austria

Now
37 °F

Light rain. Fog.


Feels Like: 37 °F
Forecast: 40 / 48 °F
Wind: 2 mph from Southeast

Location: Linz / Hoersching-Flughafen

Current Time: Mar 1, 2015 at 6:35:58 PM

Latest Report: Mar 1, 2015 at 5:50 PM


Visibility: 2 mi

Pressure: 29.86 "Hg

Humidity: 93%

Dew point: 36 °F

Location of LeondingLocation

Historic Weather in Leonding — Graph

°F

Leonding temperature yesterday

Maximum temperature yesterday: 41 °F (at 2:50 PM)
Minimum temperature yesterday: 30 °F (at 8:20 PM)
Average temperature yesterday: 37 °F

Past Weeks' High & Low Weather Summary

 TemperatureHumidityPressure
High52 °F (Feb 16, 3:20 PM)100% (Feb 14, 6:50 PM)30.74 "Hg (Feb 14, 6:50 PM)
Low21 °F (Feb 15, 2:20 AM)46% (Feb 26, 2:50 PM)29.50 "Hg (Feb 21, 4:20 PM)
Average35 °F83%30.03 "Hg
* Reported Feb 14 5:20 PM — Mar 1 5:20 PM, Leonding, Weather by CustomWeather, © 2015

Note: Actual official high and low records may vary slightly from our data, if they occured in-between our weather recording intervals... More about our weather records

Advertising

Leonding weather history for previous 24 hours

 ConditionsComfort  
Time TempWeatherWind HumidityBarometerVisibility
5:20 PM
Sun, Mar 1
37 °FSprinkles. Fog.2 mph93%29.86 "Hg2 mi
4:50 PM39 °FSprinkles. Fog.1 mph87%29.86 "Hg2 mi
4:20 PM39 °FPartly sunny.1 mph81%29.86 "HgN/A
3:50 PM39 °FPartly sunny.3 mph81%29.83 "HgN/A
3:20 PM39 °FSprinkles. Partly sunny.3 mph81%29.86 "Hg4 mi
2:50 PM39 °FSprinkles. Partly sunny.2 mph81%29.86 "Hg4 mi
2:20 PM39 °FPartly sunny.2 mph75%29.86 "Hg6 mi
1:50 PM37 °FBroken clouds.2 mph81%29.86 "Hg4 mi
1:20 PM37 °FLight rain. Fog.2 mph87%29.86 "Hg2 mi
12:50 PM36 °FFog.2 mph87%29.89 "Hg2 mi
12:20 PM34 °FLight snow. Fog.1 mph93%29.89 "Hg1 mi
11:50 AM32 °FSnow. Cloudy.1 mph100%29.92 "Hg1 mi
11:20 AM32 °FIce fog.2 mph100%29.92 "Hg1 mi
10:50 AM32 °FDense fog.1 mph100%29.92 "Hg1 mi
10:20 AM30 °FIce fog.2 mph100%29.92 "Hg1 mi
9:50 AM30 °FIce fog.2 mph100%29.92 "Hg0 mi
9:20 AM28 °FIce fog.2 mph100%29.92 "Hg0 mi
8:50 AM28 °FIce fog.1 mph100%29.95 "Hg0 mi
8:20 AM28 °FIce fog.1 mph100%29.95 "Hg0 mi
7:50 AM27 °FIce fog.1 mph100%29.95 "Hg0 mi
7:20 AM27 °FIce fog.2 mph100%29.95 "Hg0 mi
6:50 AM27 °FIce fog.2 mph100%29.95 "Hg0 mi
6:20 AM27 °FIce fog.2 mph100%29.95 "Hg0 mi
5:50 AM27 °FIce fog.3 mph100%29.98 "Hg0 mi
5:20 AM27 °FIce fog.5 mph100%29.98 "Hg0 mi
4:50 AM27 °FPassing clouds.5 mph100%29.98 "Hg0 mi
4:20 AM27 °FChilly.2 mph100%29.98 "Hg1 mi
3:50 AM27 °FLight freezing rain. Passing clouds.2 mph100%29.98 "Hg3 mi
3:20 AM27 °FLight fog.2 mph100%29.98 "Hg1 mi
2:50 AM28 °FLight fog.2 mph93%30.01 "Hg2 mi
2:20 AM28 °FSnow. Overcast.1 mph100%30.01 "Hg2 mi
1:50 AM28 °FLight fog.2 mph100%30.01 "Hg2 mi
1:20 AM28 °FLight fog.3 mph100%30.04 "Hg1 mi
12:50 AM28 °FSnow. Overcast.1 mph100%30.04 "Hg3 mi
12:20 AM28 °FLight freezing rain. Overcast.1 mph100%30.04 "Hg2 mi
11:50 PM
Sat, Feb 28
30 °FLight freezing rain. Passing clouds.1 mph93%30.04 "Hg3 mi
10:50 PM30 °FPassing clouds.2 mph93%30.07 "HgN/A
10:20 PM32 °FPassing clouds.1 mph93%30.07 "HgN/A
9:50 PM30 °FPassing clouds.2 mph100%30.09 "HgN/A
9:20 PM30 °FPassing clouds.2 mph100%30.09 "HgN/A
8:50 PM34 °FPassing clouds.3 mph93%30.09 "HgN/A
8:20 PM30 °FPassing clouds.3 mph93%30.09 "HgN/A
7:50 PM34 °FPassing clouds.2 mph87%30.09 "HgN/A
7:20 PM34 °FPassing clouds.2 mph93%30.09 "HgN/A
6:50 PM36 °FPassing clouds.2 mph87%30.09 "HgN/A
6:20 PM37 °FPassing clouds.3 mph81%30.09 "HgN/A
Weather by CustomWeather, © 2015

See weather overviewHow to use our weather pages